Hourly Data Report for October 18, 2013

All times are specified in Local Standard Time (LST). Add 1 hour to adjust for Daylight Saving Time where and when it is observed.

FORT LIARD
NORTHWEST TERRITORIES

60°14'00.000" N
123°28'00.000" W
213.40 m
2201579
71497
WJL

Download Data

Hourly Data (October 2013)
Hourly Data Report for October 18, 2013
Temp Definition
°C
Dew Point Temp Definition
°C
Rel Hum Definition
%
Wind Dir Definition
10's deg

Wind Spd Definition
km/h
Visibility Definition
km
Stn Press Definition
kPa
Hmdx Definition


Wind Chill Definition


Weather Definition


TIME
00:00 2.5 0.3 85 23 13   98.80     LegendNANA
01:00 1.7 -0.2 87 22 7   98.75     LegendNANA
02:00 1.2 -0.3 90 23 9   98.70     LegendNANA
03:00 1.4 -0.3 88 22 11   98.64     LegendNANA
04:00 0.7 -0.7 90 22 6   98.60     LegendNANA
05:00 -0.5 -1.3 94 21 2   98.50   -1 LegendNANA
06:00 0.9 -0.8 88 7 4   98.38     LegendNANA
07:00 4.0 0.8 80 3 2   98.27     LegendNANA
08:00 14.2 0.7 40 27 13   98.27     LegendNANA
09:00 14.0 0.7 40 25 24   98.20     LegendNANA
10:00 13.6 0.9 42 23 22   98.28     LegendNANA
11:00 15.3 0.0 35 24 22   98.24     LegendNANA
12:00 15.9 -0.4 33 25 30   98.15     LegendNANA
13:00 16.2 -0.3 32 24 19   98.25     LegendNANA
14:00 16.3 -0.2 32 25 15   98.28     LegendNANA
15:00 15.8 -0.7 32 25 19   98.27     LegendNANA
16:00 17.1 -0.7 30 26 13   98.28     LegendNANA
17:00 15.4 -0.9 33 24 15   98.27     LegendNANA
18:00 13.4 -0.5 38 25 11   98.26     LegendNANA
19:00 13.3 -0.7 38 24 13   98.22     LegendNANA
20:00 12.9 -0.6 39 24 15   98.23     LegendNANA
21:00 13.8 -1.2 35 25 15   98.26     LegendNANA
22:00 14.3 -0.4 36 25 15   98.31     LegendNANA
23:00 13.5 0.5 41 24 17   98.32     LegendNANA

Notes on Data Quality.

Legend

  • E = Estimated
  • M = Missing
  • NA = Not Available
  • ‡ = Partner data that is not subject to review by the National Climate Archives
Date modified: